TIME,DELAY(SENSOR),PRES,T(CTD),SAL,OXYGEN,RAWTEMP,T(OPTODE),TCPHASE,FLUOR,BETA(BETA700),BETA(BETA412),BETA(BETA440),CDOM,C(CSC),ED(ED411.90),ED(ED443.80),ED(ED489.40),ED(ED554.70),LU(LU412.20),LU(LU443.80),LU(LU489.40),LU(LU555.00),COMP,TILTX,TILTX(TILTY),CHECK
1350055324,5804,496.9100036621094000,16.9913005828857420,36.3639984130859400,221.9983978271484400,202.8791046142578000,16.9941196441650400,32.6090698242187500,50,100,59,82,58,1605,2147485403,2147769956,2147563739,2147801810,2147316672,2147469394,2147712155,2148245129,129,7,13,22452
1350055437,5802,486.5899963378906000,17.1222991943359380,36.3894996643066400,223.6985931396484400,198.7241973876953000,17.1204891204834000,32.4634590148925800,50,99,60,82,58,1606,2147484233,2147768018,2147562221,2147798518,2147317092,2147473901,2147713024,2148242340,381,6,12,54819
1350055558,5802,475.5899963378906000,17.1931991577148440,36.4039001464843750,225.5355072021484400,196.4604949951172000,17.1893501281738280,32.3383293151855500,50,100,59,82,58,1608,2147486774,2147768813,2147562998,2147795666,2147317522,2147473417,2147714304,2148239341,3294,7,12,39349
1350055679,5807,464.5000000000000000,17.3313999176025400,36.4286994934082000,226.8361053466797000,191.9537963867187500,17.3264503479003900,32.2101898193359400,50,100,58,83,57,1611,2147483574,2147766162,2147562514,2147796086,2147316214,2147473792,2147711168,2148241956,34,6,13,51219
1350055802,5802,453.1300048828125000,17.3988990783691400,36.4422988891601560,227.9508056640625000,189.6558990478515600,17.3963603973388670,32.1227188110351560,50,99,60,82,58,1614,2147485997,2147769700,2147562386,2147795081,2147315163,2147475657,2147713526,2148242276,185,6,13,64790
1350055923,5804,441.9200134277344000,17.4645004272460940,36.4561004638671900,229.0867004394531200,187.1813964843750000,17.4716491699218750,32.0317802429199200,49,101,60,81,58,1615,2147485476,2147767350,2147562322,2147798070,2147313380,2147476544,2147709266,2148245650,3203,7,13,38764
1350056036,5806,431.6199951171875000,17.5457000732421880,36.4700012207031250,229.0980987548828000,184.5959930419922000,17.5503196716308600,31.9958591461181640,49,101,60,82,57,1615,2147490816,2147765613,2147561325,2147793755,2147315392,2147477814,2147713618,2148245961,266,7,13,32044
1350056168,5805,419.9599914550781000,17.6319007873535160,36.4878997802734400,231.7742004394531200,181.8730010986328000,17.6331901550292970,31.8266391754150400,49,101,60,82,57,1616,2147485321,2147768868,2147558756,2147794788,2147316434,2147475346,2147711634,2148241426,350,7,12,64432
1350056289,5800,409.5199890136719000,17.6994991302490230,36.4992980957031250,232.5673065185547000,179.6342926025390600,17.7013301849365230,31.7573394775390620,50,100,59,83,58,1619,2147488521,2147765540,2147559378,2147794432,2147318345,2147473618,2147710509,2148241472,3556,7,12,13416
1350056423,5806,398.0100097656250000,17.7854003906250000,36.5141983032226560,233.0144042968750000,176.9333953857422000,17.7835407257080080,31.6990604400634770,50,100,60,82,57,1623,2147489435,2147768630,2147557778,2147792576,2147315108,2147475821,2147710409,2148244781,362,7,13,27145
1350056544,5803,387.7000122070312500,17.8593006134033200,36.5266990661621100,233.7967987060547000,174.5765075683593800,17.8552894592285160,31.6291007995605470,49,100,59,81,57,1623,2147489270,2147767908,2147555364,2147793536,2147317504,2147471926,2147707117,2148246893,447,7,13,60740
1350056679,5805,376.4599914550781000,17.9235000610351560,36.5376014709472660,234.5760955810547000,172.4541015625000000,17.9199008941650400,31.5624294281005860,49,100,61,82,58,1624,2147493540,2147765549,2147559506,2147793581,2147313709,2147478326,2147710272,2148243382,536,6,13,58289
1350056811,5803,365.5899963378906000,17.9810009002685550,36.5471000671386700,235.1159973144531200,170.4835052490234400,17.9799098968505860,31.5100307464599600,50,100,59,82,57,1628,2147493184,2147766994,2147561316,2147793088,2147317814,2147477348,2147709851,2148241472,1145,7,13,7423
1350056946,5803,354.4500122070312500,18.0547008514404300,36.5564002990722660,234.6511993408203000,168.1640930175781200,18.0505409240722660,31.5011405944824220,49,100,59,82,57,1633,2147488246,2147764900,2147560978,2147792777,2147318793,2147480347,2147711734,2148246482,1692,7,12,35562
1350057078,5805,343.5700073242187500,18.1172008514404300,36.5628013610839840,233.6669006347656200,166.1204071044922000,18.1127796173095700,31.5211601257324220,50,101,58,82,56,1636,2147493184,2147766061,2147560256,2147795309,2147318189,2147478189,2147713005,2148243282,1991,7,12,3271
1350057210,5802,332.5899963378906000,18.1868991851806640,36.5708007812500000,232.7617034912109400,163.8256988525390600,18.1826705932617200,31.5340003967285160,50,99,59,82,59,1640,2147491803,2147765019,2147563748,2147791853,2147311213,2147478244,2147708178,2148242368,2591,7,12,23631
1350057344,5801,321.3800048828125000,18.2476005554199220,36.5774993896484400,232.2433929443359400,161.7409057617187500,18.2461795806884770,31.5312805175781250,50,102,59,82,58,1646,2147493430,2147765805,2147561700,2147797494,2147318509,2147474806,2147711241,2148242166,3278,7,12,9168
1350057476,5803,310.4800109863281000,18.2978992462158200,36.5816993713378900,231.6631011962890600,160.1365966796875000,18.2950592041015620,31.5379695892334000,50,100,60,82,57,1644,2147490742,2147767853,2147567177,2147791670,2147308827,2147480685,2147716041,2148239442,3179,7,12,8116
1350057611,5805,299.6000061035156000,18.3687000274658200,36.5889015197753900,230.5231018066406200,157.7595977783203000,18.3674793243408200,31.5617694854736330,50,102,60,81,57,1648,2147490331,2147768374,2147574098,2147792640,2147315328,2147483209,2147720009,2148246610,3359,6,12,43365
1350057754,5803,288.3599853515625000,18.4372005462646500,36.5987014770507800,231.1000061035156200,155.5397033691406200,18.4351291656494140,31.5035991668701170,50,99,60,82,57,1653,2147488658,2147769435,2147574217,2147790509,2147317942,2147480850,2147715181,2148242669,131,7,13,32189
1350057897,5803,276.8900146484375000,18.5095005035400400,36.6043014526367200,230.5314025878906200,153.0281982421875000,18.5116806030273440,31.4979496002197270,50,102,60,82,58,1656,2147491858,2147772717,2147593133,2147790537,2147318153,2147486491,2147729152,2148242889,3037,7,12,31030
1350058008,5804,266.4500122070312500,18.6406002044677730,36.6157989501953100,229.3612976074218800,148.7928924560547000,18.6407909393310550,31.4987697601318360,49,101,60,83,56,1657,2147490230,2147779300,2147605193,2147788845,2147313792,2147489508,2147734555,2148242852,3155,7,13,44252
1350058129,5804,254.9900054931640600,18.7714996337890620,36.6171989440918000,228.1884002685547000,144.7500000000000000,18.7640705108642580,31.5025501251220700,49,101,59,82,58,1660,2147496155,2147782939,2147622299,2147789796,2147305161,2147490761,2147745691,2148242752,3410,7,13,4480
1350058241,5804,244.5800018310547000,18.8887004852294920,36.6132011413574200,228.9709014892578000,140.7776031494140600,18.8852405548095700,31.4105796813964840,50,100,59,83,58,1664,2147494811,2147790016,2147643163,2147788882,2147314669,2147496329,2147757001,2148242477,3476,7,12,11795
1350058362,5804,233.3899993896484400,19.0132007598876950,36.6074981689453100,231.0335998535156200,136.6593933105468800,19.0108890533447270,31.2548809051513670,50,98,59,81,57,1665,2147496274,2147800749,2147675392,2147790619,2147313334,2147504301,2147772754,2148242011,3339,7,13,26208
1350058486,5804,222.0500030517578000,19.1152992248535160,36.5946998596191400,236.7176971435547000,133.2355957031250000,19.1153907775878900,30.9368400573730470,49,99,60,81,56,1671,2147498742,2147818944,2147724626,2147789650,2147319625,2147515803,2147800283,2148244653,555,7,13,54166
1350058607,5804,211.3600006103515600,19.1984004974365230,36.5918006896972660,240.5346069335937500,130.6549987792968800,19.1941699981689450,30.7241096496582030,50,102,60,83,56,1670,2147504868,2147843236,2147787053,2147791780,2147318774,2147529837,2147835958,2148245229,841,7,12,24858
1350058739,5805,199.9400024414062500,19.2422008514404300,36.5773010253906250,244.5944061279297000,129.0471954345703000,19.2432594299316400,30.5171394348144530,50,100,59,82,56,1673,2147505206,2147872886,2147865042,2147789001,2147323200,2147550902,2147884205,2148252114,738,7,12,35814
1350058814,5753,193.8000030517578000,19.2570991516113280,36.5745010375976560,246.4512939453125000,128.7169036865234400,19.2533397674560550,30.4290504455566400,50,101,59,82,55,1677,2147509677,2147897819,2147936896,2147788754,2147318537,2147569673,2147922624,2148249042,616,7,12,30273
1350058868,5804,189.6999969482422000,19.2686996459960940,36.5704002380371100,246.9393005371093800,128.2662963867187500,19.2670993804931640,30.4009609222412100,50,100,59,81,56,1678,2147515830,2147915510,2147982372,2147791076,2147313664,2147578724,2147952173,2148252425,460,7,12,44339
1350058923,5804,185.5700073242187500,19.3034000396728500,36.5802993774414060,247.4819946289062500,127.1298980712890600,19.3018093109130860,30.3618907928466800,50,102,60,82,56,1679,2147521426,2147936310,2148037156,2147789686,2147314752,2147598665,2147980342,2148255680,343,7,12,34477
1350058978,5805,181.4799957275390600,19.3348007202148440,36.5839996337890600,248.0955963134765600,126.0934982299804700,19.3334598541259770,30.3210105895996100,51,102,58,81,56,1682,2147524132,2147965513,2148102546,2147788141,2147315748,2147613796,2148017216,2148260516,487,7,12,14263
1350059033,5804,177.3899993896484400,19.3588008880615230,36.5812988281250000,248.5442047119140600,125.4157028198242200,19.3541603088378900,30.2923202514648440,53,104,60,83,56,1681,2147530404,2147997805,2148174747,2147789915,2147326738,2147626093,2148058413,2148258779,612,7,12,19069
1350059088,5804,173.3099975585937500,19.3904991149902340,36.5830993652343750,248.7272949218750000,124.3906021118164000,19.3854694366455080,30.2709598541259770,54,105,59,82,56,1686,2147538880,2148022966,2148231177,2147791296,2147325924,2147642678,2148089325,2148258779,567,7,13,53531
1350059165,5803,168.1199951171875000,19.4085998535156250,36.5816001892089840,248.7731018066406200,123.6669998168945300,19.4075794219970700,30.2593193054199220,53,103,60,82,56,1689,2147541394,2148027702,2148234176,2147792676,2147325933,2147643785,2148078592,2148260562,696,7,12,44593
1350059231,5803,164.3500061035156200,19.4316997528076170,36.5831985473632800,249.0823059082031200,122.9944992065429700,19.4281291961669920,30.2369499206542970,58,106,60,83,56,1689,2147558482,2148111634,2148434752,2147789037,2147338724,2147689782,2148175670,2148266166,429,7,12,54336
1350059308,5804,160.0599975585937500,19.4573001861572270,36.5871009826660160,249.0054016113281200,122.1066970825195300,19.4552497863769530,30.2287197113037100,57,105,60,83,56,1693,2147555593,2148048118,2148221366,2147791808,2147332114,2147647890,2148055716,2148258752,177,7,12,20206
1350059374,5803,156.3999938964843800,19.4901008605957030,36.5917015075683600,248.8706054687500000,121.0479965209961000,19.4876003265380860,30.2209491729736330,57,104,59,83,55,1697,2147574317,2148156644,2148511853,2147789065,2147342418,2147713728,2148216292,2148267273,240,7,12,36574
1350059454,5805,152.1399993896484400,19.5391998291015620,36.5951995849609400,248.1573944091797000,119.4660034179687500,19.5359401702880860,30.2322101593017580,59,105,59,84,56,1700,2147618614,2148323529,2148901787,2147794541,2147355346,2147796790,2148403035,2148280740,3403,6,12,39670
1350059531,5803,148.4400024414062500,19.5837001800537100,36.5984001159668000,247.9015960693359400,118.1285018920898400,19.5768203735351560,30.2262496948242200,59,108,60,83,56,1701,2147647780,2148428516,2149100004,2147796452,2147378861,2147852891,2148503177,2148289801,2893,7,12,20334
1350059608,5803,144.7299957275390600,19.6175994873046880,36.5988998413085940,248.2252960205078000,116.9797973632812500,19.6119308471679700,30.1968002319335940,59,108,60,84,56,1703,2147586944,2148115501,2148297764,2147793444,2147349613,2147677376,2148090678,2148264365,3039,7,12,37567
1350059696,5803,140.5800018310547000,19.7283992767334000,36.6114997863769500,249.4685974121093800,113.4869003295898400,19.7187194824218750,30.0965690612792970,63,111,59,84,57,1704,2147735762,2148672932,2149556041,2147799597,2147403483,2147970651,2148712704,2148303442,3518,7,12,64428
1350059776,5806,136.8300018310547000,19.8036003112792970,36.6199989318847660,248.8330993652343800,110.6399993896484400,19.8057804107666000,30.0879096984863280,65,114,59,83,57,1710,2147791917,2148823689,2149827062,2147798912,2147434395,2148044196,2148834112,2148314797,63,7,12,57744
1350059842,5804,133.8200073242187500,19.8680000305175780,36.6246986389160160,248.6347045898437500,108.7525024414062500,19.8635196685791000,30.0722503662109380,67,112,59,82,57,1711,2147851355,2148984100,2150121837,2147802898,2147452004,2148114020,2148968420,2148326518,145,7,12,35301
1350059941,5808,129.5500030517578000,19.8976001739501950,36.6092987060546900,248.5796051025390600,107.9429016113281200,19.8882904052734380,30.0643405914306640,71,111,60,84,55,1722,2147958921,2149268489,2150641993,2147808228,2147493705,2148241408,2149187437,2148339739,83,7,12,26973
1350060040,5803,125.6299972534179700,20.0583000183105470,36.6357994079589840,248.6369018554687500,103.1305007934570300,20.0355606079101560,29.9997291564941400,74,112,60,83,57,1730,2147990134,2149237531,2150437622,2147806683,2147500150,2148215387,2149084489,2148333275,3219,7,13,10298
1350060141,5806,121.9700012207031200,20.1632003784179700,36.6567993164062500,248.4573974609375000,99.6374893188476600,20.1424999237060550,29.9626502990722660,74,111,59,83,57,1732,2148212635,2149832155,2151607104,2147818066,2147583104,2148475803,2149571090,2148371721,279,7,12,43114
1350060251,5803,118.0999984741211000,20.2187004089355470,36.6665992736816400,249.1257019042968800,97.3462829589843800,20.2126693725585940,29.9036197662353500,74,112,59,83,57,1729,2148424603,2150280996,2152350363,2147830957,2147658121,2148656438,2149878180,2148399305,202,7,13,17171
1350060372,5805,114.0400009155273400,20.3474998474121100,36.6808013916015600,250.4658966064453000,93.4493637084961000,20.3320503234863280,29.7949409484863280,80,112,59,84,58,1723,2148684288,2150780041,2153083666,2147841444,2147753252,2148855744,2150152091,2148424182,77,7,12,9262
1350060480,5804,109.6299972534179700,20.4470005035400400,36.6866989135742200,253.0968933105468800,89.6524505615234400,20.4484195709228500,29.6323604583740230,79,114,61,86,57,1725,2149104576,2151587977,2154326546,2147865115,2147893997,2149175332,2150625426,2148464704,248,7,13,21516
1350060568,5806,105.3300018310546900,20.5286998748779300,36.6935997009277340,255.1441955566406200,87.0524291992187500,20.5281391143798830,29.5113601684570300,80,113,61,84,56,1721,2149601718,2152466285,2155581202,2147888941,2148070308,2149506669,2151083547,2148512704,39,7,13,21155
1350060645,5807,101.8199996948242200,20.6408996582031250,36.6916999816894500,256.7796936035156000,83.7600479125976600,20.6291198730468750,29.4002494812011720,80,114,60,84,56,1716,2150167195,2153458889,2156963876,2147919945,2148273828,2149887168,2151641133,2148561682,91,7,12,50385
1350060722,5802,98.8899993896484400,20.7012004852294920,36.6702003479003900,255.2758941650390600,82.1400680541992200,20.6788196563720700,29.4434700012207030,85,115,59,83,57,1720,2150794907,2154512786,2158470518,2147959524,2148487579,2150301440,2152236580,2148619017,312,7,13,7302
1350060779,5804,97.0199966430664000,20.7268009185791000,36.6713981628418000,254.0641021728515600,80.7147064208984400,20.7225608825683600,29.4770603179931640,86,115,60,85,56,1716,2151288356,2155328182,2159611721,2147984822,2148652434,2150605147,2152687597,2148658624,663,7,12,7010
1350060845,5803,95.0199966430664000,20.8817996978759770,36.6712989807128900,253.9978942871093800,76.0533294677734400,20.8656501770019530,29.4207897186279300,89,117,60,84,56,1718,2151901696,2156305846,2160887771,2148020041,2148842066,2150940205,2153121865,2148705837,518,7,12,43518
1350060911,5804,93.2600021362304700,20.9176006317138670,36.6698989868164060,255.8800964355468800,74.6269912719726600,20.9094505310058600,29.3225593566894530,86,117,61,85,56,1719,2152607725,2157440749,2162406445,2148065536,2149074358,2151348571,2153696859,2148765705,182,7,13,53323
1350060988,5804,91.2900009155273400,21.0203990936279300,36.6711006164550800,256.6299133300781000,71.5295333862304700,21.0046005249023440,29.2518405914306640,84,121,61,85,57,1719,2151388635,2154767744,2157777042,2147982738,2148639232,2150246509,2151847085,2148606646,3552,7,13,54718
1350061100,5801,88.3700027465820300,21.1615009307861330,36.6659011840820300,260.5946960449219000,66.7921218872070300,21.1501903533935550,29.0264606475830080,81,116,59,85,56,1726,2154263972,2159799789,2165185856,2148169718,2149590656,2152108937,2154642605,2148879469,3130,7,12,45704
1350061155,5802,86.4800033569336000,21.2243003845214840,36.6607017517089840,262.7038879394531000,64.8267364501953100,21.2106208801269530,28.9149799346923830,79,115,61,84,56,1724,2155222226,2161087414,2166574582,2148216018,2149938962,2152624118,2155247241,2148942345,3300,8,12,7642
1350061210,5802,84.6600036621093800,21.2374992370605470,36.6640014648437500,264.2197875976562500,64.1012268066406200,21.2329292297363280,28.8439197540283200,80,117,60,86,55,1724,2156529261,2163037714,2168995437,2148291602,2150419282,2153386304,2156186066,2149044653,185,7,12,53776
1350061265,5804,82.7399978637695300,21.2978992462158200,36.6679000854492200,263.4197998046875000,62.2664604187011700,21.2893695831298830,28.8537502288818360,80,120,61,86,56,1726,2157889216,2164823908,2170956873,2148383040,2150951067,2154171346,2157100690,2149153773,440,7,12,47554
1350061320,5802,80.7399978637695300,21.4022006988525400,36.6526985168457000,262.9978942871094000,59.3032493591308600,21.3805408477783200,28.8339290618896500,79,119,60,85,54,1727,2159127990,2166374948,2172571154,2148470912,2151440722,2154849545,2157855085,2149251337,481,7,12,45217
1350061375,5805,78.7900009155273400,21.5513992309570300,36.6557006835937500,263.8559875488281000,54.2939109802246100,21.5347595214843750,28.7364006042480470,78,118,61,85,56,1720,2161165613,2169111286,2175680612,2148596964,2152206692,2155981211,2159171328,2149399058,580,7,12,36176
1350061453,5804,75.3000030517578100,21.7147006988525400,36.6357002258300800,264.5372009277344000,49.0451889038085940,21.6964607238769530,28.6434593200683600,75,118,59,87,56,1723,2165105536,2174101074,2181160365,2148893979,2153816365,2158239158,2161630912,2149703917,776,7,12,16286
1350061508,5806,72.3199996948242200,21.8593006134033200,36.6257019042968750,266.1588134765625000,44.3696403503418000,21.8406200408935550,28.5202598571777340,74,120,62,86,54,1716,2169058441,2178773019,2185676553,2149165696,2155393033,2160229019,2163683044,2149957622,340,7,13,11266
1350061563,5804,69.8000030517578100,21.9421005249023440,36.6100006103515600,267.0310974121094000,42.9720306396484400,21.8837299346923830,28.4679298400878900,72,122,60,88,55,1721,2171102043,2180349915,2186286976,2149314898,2156374710,2161194560,2164314413,2150054710,3594,8,12,3996
1350061618,5802,67.7699966430664000,22.0569992065429700,36.6167984008789060,266.4426879882812500,38.0979194641113300,22.0341396331787100,28.4312705993652340,72,120,60,85,55,1724,2176752420,2187660635,2194373376,2149734637,2158725970,2164441746,2167891273,2150483200,287,7,12,49862
1350061673,5804,66.0699996948242200,22.1280002593994140,36.6272010803222660,266.5311889648437500,35.3871612548828100,22.1178493499755860,28.3942298889160160,71,122,61,86,55,1723,2179274166,2190111213,2196251968,2149931675,2159897965,2165685101,2168939830,2150633005,272,7,12,3549
1350061742,5802,64.3600006103515600,22.3453998565673830,36.6170997619628900,266.9190979003906000,31.0654697418212900,22.2513694763183600,28.3253898620605470,68,122,62,86,54,1727,2176910747,2185483483,2189324452,2149663981,2159237842,2164189046,2166541796,2150353042,3495,8,12,53151
1350062140,5803,61.7700004577636700,22.8285999298095700,36.6236000061035160,269.1661987304687500,13.2898197174072270,22.8015708923339840,28.0183296203613280,66,122,60,88,53,1732,2190620726,2203080576,2209326180,2151013750,2165739556,2172881901,2176028480,2151456960,3294,7,12,52358
1350062195,5805,60.1599998474121100,22.9092998504638670,36.6077003479003900,270.1523132324219000,10.9254398345947270,22.8748703002929700,27.9507904052734380,65,124,59,89,54,1720,2171209654,2175797485,2176407497,2149288749,2157668269,2160669092,2161248073,2149788964,3094,7,12,29936
1350062338,5803,58.8499984741210940,23.0058002471923830,36.6041984558105500,270.9191894531250000,6.8356537818908690,23.0017509460449220,27.8709602355957030,63,125,59,86,53,1725,2165810953,2167823936,2166450331,2148712182,2155637348,2157320987,2156993270,2149299574,3508,7,12,37563
1350062460,5803,55.9300003051757800,23.2175006866455080,36.5951995849609400,270.9082031250000000,0.5338311195373535,23.1974506378173830,27.7947502136230470,66,126,60,88,53,1715,2204034450,2214711826,2218438043,2152475072,2173615588,2180687881,2182259904,2152372937,2205,7,12,44531
1350062602,5804,52.7200012207031250,23.6266994476318360,36.6251983642578100,271.3894042968750000,-13.5434598922729500,23.6354293823242200,27.6053390502929700,65,122,60,89,52,1711,2216024018,2226391085,2228455414,2153407908,2181288192,2188855798,2189388544,2153256813,2177,8,12,50614
1350062636,5804,52.1899986267089840,23.8854007720947270,36.5936012268066400,271.4948120117187500,-17.3698692321777340,23.7546901702880860,27.5549392700195300,64,123,61,87,52,1707,2219415844,2230649179,2233383762,2153968402,2182874304,2190728630,2190990747,2153508416,2480,8,12,39207
1350062787,5802,50.9500007629394500,24.0258007049560550,36.6111984252929700,272.6867065429687500,-25.3877601623535160,24.0048809051513670,27.4123306274414060,63,125,60,88,52,1700,2223352877,2233992082,2235643419,2154709348,2186830198,2194843227,2194548809,2153933440,2713,8,12,54707
1350062904,5802,48.8300018310546900,24.3395004272460940,36.5853996276855500,271.8125915527344000,-35.5434303283691400,24.3223705291748050,27.3235893249511720,60,125,59,87,53,1688,2230452507,2241677430,2243828800,2155937380,2192835081,2200973805,2199491776,2154639186,3236,7,12,43889
1350063080,5805,46.6899986267089840,24.7434997558593750,36.6046981811523440,269.5675964355469000,-47.9266891479492200,24.7104396820068360,27.2610607147216800,61,128,60,90,53,1692,2239561398,2249168649,2248908416,2156831424,2199528786,2207089819,2204020717,2155326290,2905,7,12,4
1350063449,5805,44.8699989318847660,25.4141006469726560,36.5065994262695300,264.6796875000000000,-66.6384963989257800,25.2988796234130860,27.2266998291015620,61,124,61,89,52,1670,2248713910,2258310546,2257814153,2158615268,2209960027,2217135661,2211797202,2156377124,2552,7,12,49878
1350063770,5805,42.5999984741210940,25.9477005004882800,36.4919013977050800,258.8135070800781000,-84.5878372192382800,25.8657894134521500,27.2437400817871100,61,128,61,89,50,1659,2251628452,2260273115,2259004059,2159714496,2216310966,2221032658,2211943826,2156820086,405,7,12,27377
1350063851,5803,40.9599990844726560,26.2394008636474600,36.5157012939453100,255.2456054687500000,-95.3085327148437500,26.2056007385253900,27.2587699890136720,60,127,60,88,54,1650,2260328868,2269219355,2268495780,2161371346,2223923739,2229863259,2221141897,2157893467,1188,7,12,17317
1350064219,5806,38.8699989318847660,26.7894992828369140,36.5175018310546900,245.8292999267578000,-113.9880981445312500,26.7999401092529300,27.4236698150634770,58,124,60,88,53,1636,2219346093,2220890578,2215813275,2155855744,2200245312,2200873627,2192138779,2154079680,40,8,12,16705
1350064310,5806,36.8499984741210940,26.8223991394042970,36.5041999816894500,244.6450042724609400,-115.0500030517578100,26.8338203430175780,27.4610290527343750,58,121,60,87,52,1625,2290198006,2303053997,2305778157,2170111670,2250005120,2254787163,2241046409,2161869769,251,8,11,50805
1350064619,5805,34.8499984741210940,26.9095993041992200,36.3105010986328100,240.4492950439453000,-117.9039993286132800,26.9249191284179700,27.6064796447753900,56,120,61,89,50,1609,2241309403,2243559067,2238897243,2161334491,2222141065,2220864502,2206979776,2156824530,2947,7,12,37